Lemoore NAS, CA

5:47 AM PDT on April 21, 2018 (GMT -0700)
Lemoore Naval Air Station

Weather History for KNLC - March, 2014

Change the Weather History Date:

Sunday, March 9, 2014

  Actual Average Record
Temperature  
Mean Temperature 66 °F -  
Max Temperature 78 °F 65 °F 79 °F (2004)
Min Temperature 54 °F 42 °F 34 °F (2012)
Cooling Degree Days 1    
Growing Degree Days 16 (Base 50)    
Moisture  
Dew Point 47 °F    
Average Humidity 54    
Maximum Humidity 75    
Minimum Humidity 29    
Precipitation  
Precipitation 0.00 in - - ()
Sea Level Pressure  
Sea Level Pressure 30.15 in    
Wind  
Wind Speed 5 mph (South)    
Max Wind Speed 12 mph    
Max Gust Speed -    
Visibility 10 miles    
Events      
Averages and records for this station are not official NWS values.
T = Trace of Precipitation, MM = Missing Value Source: NWS Daily Summary

Daily Weather History Graph

Daily Weather History Graph

Search for Another Location

Airport or City:

Astronomy

Mar. 09, 2014 Rise Set
Actual Time 7:19 AM PDT 7:01 PM PDT
Civil Twilight 6:53 AM PDT 7:27 PM PDT
Nautical Twilight 6:23 AM PDT 7:57 PM PDT
Astronomical Twilight 5:53 AM PDT 8:27 PM PDT
Moon 1:06 PM PDT (3/9) 3:41 AM PDT (3/9)
Length of Visible Light 12h 34m
Length of Day
11h 42m
First Quarter, 62% of the Moon is Illuminated
Mar 9
First Quarter
Mar 16
Full
Mar 23
Last Quarter
Mar 30
New
Apr 7
First Quarter

Hourly Weather History & Observations

Time (PDT) Temp. Dew Point Humidity Pressure Visibility Wind Dir Wind Speed Gust Speed Precip Events Conditions
12:56 AM 55.9 °F 46.0 °F 69% 30.21 in 10.0 mi WNW 5.8 mph - N/A   Clear
1:56 AM 57.0 °F 46.0 °F 67% 30.21 in 10.0 mi Calm Calm - N/A   Clear
3:56 AM 55.9 °F 46.0 °F 69% 30.19 in 10.0 mi SE 5.8 mph - N/A   Clear
4:56 AM 55.9 °F 46.9 °F 72% 30.18 in 10.0 mi South 5.8 mph - N/A   Clear
5:56 AM 55.0 °F 46.0 °F 72% 30.18 in 10.0 mi SW 5.8 mph - N/A   Clear
6:56 AM 54.0 °F 45.0 °F 72% 30.17 in 10.0 mi WSW 5.8 mph - N/A   Clear
7:56 AM 54.0 °F 46.0 °F 75% 30.18 in 10.0 mi West 4.6 mph - N/A   Clear
8:56 AM 60.1 °F 48.9 °F 67% 30.18 in 10.0 mi Calm Calm - N/A   Clear
9:56 AM 63.0 °F 50.0 °F 63% 30.19 in 10.0 mi North 4.6 mph - N/A   Clear
10:56 AM 64.9 °F 51.1 °F 61% 30.20 in 10.0 mi North 5.8 mph - N/A   Clear
11:56 AM 71.1 °F 52.0 °F 51% 30.19 in 10.0 mi NE 5.8 mph - N/A   Clear
12:56 PM 73.0 °F 48.0 °F 41% 30.17 in 10.0 mi NE 8.1 mph - N/A   Clear
1:56 PM 73.9 °F 46.9 °F 38% 30.16 in 10.0 mi ENE 6.9 mph - N/A   Clear
2:56 PM 75.0 °F 46.9 °F 37% 30.14 in 10.0 mi Calm Calm - N/A   Clear
3:04 PM 75.9 °F 46.9 °F 36% 30.13 in 10.0 mi ESE 5.8 mph - N/A   Overcast
3:56 PM 75.9 °F 45.0 °F 33% 30.12 in 10.0 mi East 6.9 mph - N/A   Mostly Cloudy
4:56 PM 78.1 °F 43.0 °F 29% 30.11 in 10.0 mi NE 5.8 mph - N/A   Mostly Cloudy
5:56 PM 77.0 °F 45.0 °F 32% 30.10 in 10.0 mi ENE 5.8 mph - N/A   Mostly Cloudy
6:56 PM 73.0 °F 46.0 °F 38% 30.09 in 10.0 mi SE 4.6 mph - N/A   Mostly Cloudy
7:56 PM 70.0 °F 45.0 °F 41% 30.10 in 8.0 mi SW 4.6 mph - N/A   Mostly Cloudy
8:56 PM 66.0 °F 46.0 °F 48% 30.11 in 8.0 mi SW 6.9 mph - N/A   Clear
9:56 PM 64.9 °F 46.0 °F 50% 30.11 in 10.0 mi South 5.8 mph - N/A   Clear
10:56 PM 59.0 °F 45.0 °F 60% 30.12 in 10.0 mi SW 9.2 mph - N/A   Clear
11:56 PM 60.1 °F 46.9 °F 62% 30.10 in 10.0 mi SSW 11.5 mph - N/A   Clear
12:56 AM 57.9 °F 42.1 °F 56% 30.09 in 10.0 mi SSW 10.4 mph - N/A   Clear